• In Uzbekistan
  • List of Countries
  • For 7 days
  • Water Temperature
  • Satellite Maps
  • Weather Map
  • Weather Widgets
  • user-avatar
    Login

    Hourly Weather Canberra

    Today, 25 May, Thursday

    Time Temperature Precipitation Wind Pressure Humidity
    00:00 +6°C° 0 mm 1 mps 710 mmHg 96%
    01:00 +6°C° 0 mm 1 mps 710 mmHg 96%
    02:00 +6°C° 0 mm 1 mps 710 mmHg 96%
    03:00 +5°C° 0 mm 1 mps 711 mmHg 96%
    04:00 +5°C° 0 mm 1 mps 710 mmHg 95%
    05:00 +5°C° 0 mm 1 mps 711 mmHg 95%
    06:00 +5°C° 0 mm 1 mps 711 mmHg 95%
    07:00 +5°C° 0 mm 1 mps 711 mmHg 95%
    08:00 +7°C° 0 mm 1 mps 712 mmHg 85%
    09:00 +10°C° 0 mm 1 mps 712 mmHg 75%
    10:00 +12°C° 0 mm 1 mps 712 mmHg 67%
    11:00 +14°C° 0 mm 1 mps 712 mmHg 62%
    12:00 +15°C° 0 mm 1 mps 712 mmHg 56%
    13:00 +16°C° 0 mm 2 mps 711 mmHg 51%
    14:00 +16°C° 0 mm 2 mps 711 mmHg 55%
    15:00 +15°C° 0 mm 2 mps 711 mmHg 59%
    16:00 +15°C° 0 mm 2 mps 711 mmHg 64%
    17:00 +13°C° 0 mm 2 mps 711 mmHg 73%
    18:00 +10°C° 0 mm 2 mps 711 mmHg 83%
    19:00 +8°C° 0 mm 2 mps 711 mmHg 92%
    20:00 +7°C° 0 mm 2 mps 711 mmHg 93%
    21:00 +7°C° 0 mm 2 mps 711 mmHg 94%
    22:00 +7°C° 0 mm 1 mps 711 mmHg 95%
    23:00 +7°C° 0 mm 1 mps 711 mmHg 95%

    Tomorrow, 26 May, Friday

    Time Temperature Precipitation Wind Pressure Humidity
    00:00 +7°C° 0 mm 1 mps 711 mmHg 95%
    01:00 +6°C° 0 mm 1 mps 711 mmHg 96%
    02:00 +6°C° 0 mm 1 mps 711 mmHg 95%
    03:00 +6°C° 0 mm 1 mps 711 mmHg 94%
    04:00 +6°C° 0 mm 1 mps 711 mmHg 94%
    05:00 +6°C° 0 mm 1 mps 711 mmHg 94%
    06:00 +5°C° 0 mm 1 mps 712 mmHg 93%
    07:00 +5°C° 0 mm 1 mps 712 mmHg 93%
    08:00 +8°C° 0 mm 1 mps 712 mmHg 82%
    09:00 +10°C° 0 mm 0 mps 713 mmHg 71%
    10:00 +13°C° 0 mm 0 mps 713 mmHg 61%
    11:00 +14°C° 0 mm 0 mps 713 mmHg 57%
    12:00 +16°C° 0 mm 1 mps 713 mmHg 53%
    13:00 +18°C° 0 mm 1 mps 713 mmHg 50%
    14:00 +18°C° 0 mm 1 mps 712 mmHg 54%
    15:00 +16°C° 0 mm 1 mps 712 mmHg 59%
    16:00 +15°C° 0 mm 1 mps 712 mmHg 63%
    17:00 +13°C° 0 mm 1 mps 712 mmHg 74%
    18:00 +10°C° 0 mm 1 mps 712 mmHg 84%
    19:00 +7°C° 0 mm 1 mps 712 mmHg 95%
    20:00 +7°C° 0 mm 1 mps 712 mmHg 96%
    21:00 +6°C° 0 mm 1 mps 712 mmHg 97%
    22:00 +6°C° 0 mm 1 mps 713 mmHg 98%
    23:00 +6°C° 0 mm 1 mps 712 mmHg 98%

    Day after tomorrow, 27 May, Saturday

    Time Temperature Precipitation Wind Pressure Humidity
    00:00 +5°C° 0 mm 1 mps 712 mmHg 98%
    01:00 +5°C° 0 mm 1 mps 712 mmHg 99%
    02:00 +5°C° 0 mm 1 mps 712 mmHg 99%
    03:00 +4°C° 0 mm 0 mps 712 mmHg 99%
    04:00 +3°C° 0 mm 0 mps 711 mmHg 99%
    05:00 +3°C° 0 mm 0 mps 711 mmHg 99%
    06:00 +3°C° 0 mm 0 mps 711 mmHg 99%
    07:00 +2°C° 0 mm 0 mps 712 mmHg 99%
    08:00 +7°C° 0 mm 1 mps 712 mmHg 91%
    09:00 +10°C° 0 mm 1 mps 712 mmHg 82%
    10:00 +13°C° 0 mm 1 mps 713 mmHg 74%
    11:00 +14°C° 0 mm 2 mps 712 mmHg 67%
    12:00 +15°C° 0 mm 2 mps 711 mmHg 61%
    13:00 +16°C° 0 mm 3 mps 711 mmHg 54%
    14:00 +16°C° 0 mm 2 mps 710 mmHg 57%
    15:00 +15°C° 0 mm 2 mps 710 mmHg 60%
    16:00 +15°C° 0 mm 2 mps 710 mmHg 62%
    17:00 +12°C° 0 mm 2 mps 710 mmHg 72%
    18:00 +9°C° 0 mm 2 mps 709 mmHg 82%
    19:00 +8°C° 0 mm 1 mps 709 mmHg 92%
    20:00 +7°C° 0 mm 2 mps 709 mmHg 92%
    21:00 +6°C° 0 mm 2 mps 709 mmHg 93%
    22:00 +6°C° 0 mm 2 mps 709 mmHg 94%
    23:00 +6°C° 0 mm 2 mps 709 mmHg 93%

    28 May, Sunday

    Time Temperature Precipitation Wind Pressure Humidity
    00:00 +6°C° 0 mm 2 mps 709 mmHg 93%
    01:00 +6°C° 0 mm 2 mps 708 mmHg 92%
    02:00 +6°C° 0 mm 2 mps 708 mmHg 91%
    03:00 +6°C° 0 mm 2 mps 708 mmHg 91%
    04:00 +6°C° 0 mm 2 mps 708 mmHg 90%
    05:00 +6°C° 0 mm 2 mps 708 mmHg 91%
    06:00 +6°C° 0 mm 2 mps 708 mmHg 91%
    07:00 +7°C° 0 mm 2 mps 708 mmHg 91%
    08:00 +8°C° 0 mm 3 mps 708 mmHg 84%
    09:00 +10°C° 0 mm 3 mps 708 mmHg 77%
    10:00 +12°C° 0 mm 4 mps 708 mmHg 70%
    11:00 +13°C° 0.1 mm 5 mps 708 mmHg 66%
    12:00 +13°C° 0.1 mm 5 mps 707 mmHg 62%
    13:00 +14°C° 0.1 mm 6 mps 707 mmHg 57%
    14:00 +13°C° 0.1 mm 5 mps 707 mmHg 63%
    15:00 +12°C° 0.1 mm 5 mps 707 mmHg 68%
    16:00 +11°C° 0.1 mm 4 mps 707 mmHg 73%
    17:00 +10°C° 0 mm 4 mps 707 mmHg 78%
    18:00 +9°C° 0 mm 3 mps 707 mmHg 83%
    19:00 +7°C° 0 mm 3 mps 708 mmHg 88%
    20:00 +7°C° 0 mm 3 mps 708 mmHg 88%
    21:00 +6°C° 0 mm 2 mps 708 mmHg 88%
    22:00 +6°C° 0 mm 2 mps 709 mmHg 87%
    23:00 +6°C° 0 mm 2 mps 709 mmHg 87%

    29 May, Monday

    Time Temperature Precipitation Wind Pressure Humidity
    00:00 +5°C° 0 mm 2 mps 708 mmHg 86%
    01:00 +5°C° 0 mm 2 mps 708 mmHg 86%
    02:00 +5°C° 0 mm 2 mps 708 mmHg 87%
    03:00 +5°C° 0 mm 2 mps 708 mmHg 89%
    04:00 +5°C° 0 mm 2 mps 708 mmHg 90%
    05:00 +5°C° 0 mm 2 mps 709 mmHg 91%
    06:00 +4°C° 0 mm 2 mps 709 mmHg 92%
    07:00 +4°C° 0 mm 2 mps 710 mmHg 92%
    08:00 +5°C° 0 mm 2 mps 710 mmHg 82%
    09:00 +7°C° 0 mm 2 mps 711 mmHg 72%
    10:00 +8°C° 0 mm 3 mps 711 mmHg 62%
    11:00 +9°C° 0 mm 3 mps 711 mmHg 56%
    12:00 +10°C° 0 mm 3 mps 711 mmHg 50%
    13:00 +11°C° 0 mm 3 mps 711 mmHg 44%
    14:00 +10°C° 0 mm 3 mps 711 mmHg 47%
    15:00 +10°C° 0 mm 3 mps 711 mmHg 50%
    16:00 +9°C° 0 mm 3 mps 711 mmHg 53%
    17:00 +7°C° 0 mm 2 mps 711 mmHg 63%
    18:00 +5°C° 0 mm 2 mps 712 mmHg 72%
    19:00 +3°C° 0 mm 2 mps 712 mmHg 82%
    20:00 +3°C° 0 mm 2 mps 712 mmHg 85%
    21:00 +3°C° 0 mm 1 mps 712 mmHg 88%
    22:00 +2°C° 0 mm 1 mps 713 mmHg 90%
    23:00 +2°C° 0 mm 1 mps 712 mmHg 91%

    30 May, Tuesday

    Time Temperature Precipitation Wind Pressure Humidity
    00:00 +2°C° 0 mm 1 mps 712 mmHg 92%
    01:00 +2°C° 0 mm 1 mps 712 mmHg 92%
    02:00 +1°C° 0 mm 2 mps 712 mmHg 92%
    03:00 +1°C° 0 mm 2 mps 712 mmHg 91%
    04:00 +1°C° 0 mm 2 mps 712 mmHg 91%
    05:00 +2°C° 0 mm 2 mps 712 mmHg 90%
    06:00 +2°C° 0 mm 2 mps 712 mmHg 89%
    07:00 +2°C° 0 mm 2 mps 712 mmHg 88%
    08:00 +3°C° 0 mm 3 mps 712 mmHg 80%
    09:00 +5°C° 0 mm 4 mps 712 mmHg 73%
    10:00 +7°C° 0 mm 4 mps 712 mmHg 65%
    11:00 +7°C° 0 mm 5 mps 711 mmHg 66%
    12:00 +8°C° 0 mm 5 mps 711 mmHg 67%
    13:00 +8°C° 0 mm 6 mps 710 mmHg 68%
    14:00 +8°C° 0.1 mm 6 mps 710 mmHg 72%
    15:00 +8°C° 0.1 mm 6 mps 710 mmHg 76%
    16:00 +8°C° 0.1 mm 6 mps 710 mmHg 81%
    17:00 +6°C° 0 mm 5 mps 711 mmHg 78%
    18:00 +5°C° 0 mm 5 mps 711 mmHg 76%
    19:00 +4°C° 0 mm 4 mps 712 mmHg 74%
    20:00 +3°C° 0 mm 4 mps 712 mmHg 74%
    21:00 +3°C° 0 mm 4 mps 713 mmHg 73%
    22:00 +1°C° 0 mm 4 mps 713 mmHg 73%
    23:00 +1°C° 0 mm 4 mps 713 mmHg 72%
    Show more